26-01-2022, 00:00:09,    266,    0.0,    0.4,   0.00,   0.00, 1028.6,   87.8, -999.0
26-01-2022, 00:00:19,    272,    0.6,    0.5,   0.00,   0.00, 1028.7,   88.1, -999.0
26-01-2022, 00:00:29,    270,    0.2,    0.6,   0.00,   0.00, 1028.7,   88.1, -999.0
26-01-2022, 00:00:39,    260,    0.1,    0.4,   0.00,   0.00, 1028.6,   87.8, -999.0
26-01-2022, 00:00:49,    255,    1.7,    0.5,   0.00,   0.00, 1028.7,   88.1, -999.0
26-01-2022, 00:00:59,    260,    1.6,    0.5,   0.00,   0.00, 1028.7,   88.1, -999.0
26-01-2022, 00:01:09,    277,    1.4,    0.5,   0.00,   0.00, 1028.7,   88.1, -999.0
26-01-2022, 00:01:19,    244,    0.6,    0.5,   0.00,   0.00, 1028.7,   88.0, -999.0
26-01-2022, 00:01:29,    247,    0.4,    0.4,   0.00,   0.00, 1028.7,   87.8, -999.0
26-01-2022, 00:01:39,    247,    0.0,    0.4,   0.00,   0.00, 1028.6,   87.6, -999.0
26-01-2022, 00:01:49,    242,    0.0,    0.5,   0.00,   0.00, 1028.6,   87.7, -999.0
26-01-2022, 00:01:59,    242,    0.0,    0.4,   0.00,   0.00, 1028.6,   87.7, -999.0
26-01-2022, 00:02:09,    244,    0.1,    0.4,   0.00,   0.00, 1028.6,   87.8, -999.0
26-01-2022, 00:02:19,    273,    0.7,    0.5,   0.00,   0.00, 1028.7,   88.1, -999.0
26-01-2022, 00:02:29,    274,    0.4,    0.4,   0.00,   0.00, 1028.7,   88.1, -999.0
26-01-2022, 00:02:39,    273,    0.2,    0.5,   0.00,   0.00, 1028.6,   87.9, -999.0
26-01-2022, 00:02:48,    273,    0.0,    0.3,   0.00,   0.00, 1028.6,   87.8, -999.0
26-01-2022, 00:02:58,    273,    0.0,    0.4,   0.00,   0.00, 1028.6,   87.9, -999.0
26-01-2022, 00:03:09,    272,    0.0,    0.4,   0.00,   0.00, 1028.6,   87.8, -999.0
26-01-2022, 00:03:18,    271,    0.1,    0.4,   0.00,   0.00, 1028.7,   88.2, -999.0
26-01-2022, 00:03:28,    270,    1.1,    0.6,   0.00,   0.00, 1028.7,   88.2, -999.0
26-01-2022, 00:03:38,    269,    0.1,    0.4,   0.00,   0.00, 1028.7,   87.9, -999.0
26-01-2022, 00:03:48,    185,    0.0,    0.4,   0.00,   0.00, 1028.6,   87.8, -999.0
26-01-2022, 00:03:58,    185,    0.0,    0.4,   0.00,   0.00, 1028.6,   87.7, -999.0
26-01-2022, 00:04:08,    185,    0.0,    0.4,   0.00,   0.00, 1028.6,   87.9, -999.0
26-01-2022, 00:04:18,    199,    0.0,    0.5,   0.00,   0.00, 1028.6,   87.9, -999.0
26-01-2022, 00:04:28,    200,    0.0,    0.4,   0.00,   0.00, 1028.6,   87.8, -999.0
26-01-2022, 00:04:38,    199,    0.0,    0.5,   0.00,   0.00, 1028.6,   87.8, -999.0
26-01-2022, 00:04:48,    199,    0.0,    0.4,   0.00,   0.00, 1028.6,   87.9, -999.0
26-01-2022, 00:04:58,    199,    0.0,    0.5,   0.00,   0.00, 1028.6,   87.9, -999.0
26-01-2022, 00:05:08,    199,    0.0,    0.5,   0.00,   0.00, 1028.6,   87.8, -999.0
26-01-2022, 00:05:18,    199,    0.0,    0.4,   0.00,   0.00, 1028.6,   87.8, -999.0
26-01-2022, 00:05:28,    199,    0.0,    0.4,   0.00,   0.00, 1028.6,   87.9, -999.0
26-01-2022, 00:05:38,    200,    0.0,    0.4,   0.00,   0.00, 1028.6,   87.8, -999.0
26-01-2022, 00:05:48,    200,    0.0,    0.4,   0.00,   0.00, 1028.6,   87.9, -999.0
26-01-2022, 00:05:58,    201,    0.0,    0.4,   0.00,   0.00, 1028.5,   87.8, -999.0
26-01-2022, 00:06:07,    202,    0.0,    0.5,   0.00,   0.00, 1028.5,   87.8, -999.0
26-01-2022, 00:06:18,    203,    0.0,    0.4,   0.00,   0.00, 1028.6,   87.8, -999.0
26-01-2022, 00:06:27,    255,    0.1,    0.4,   0.00,   0.00, 1028.7,   88.0, -999.0
26-01-2022, 00:06:37,    256,    0.0,    0.4,   0.00,   0.00, 1028.6,   87.8, -999.0
26-01-2022, 00:06:48,    256,    0.0,    0.4,   0.00,   0.00, 1028.6,   87.9, -999.0
26-01-2022, 00:06:57,    260,    0.2,    0.4,   0.00,   0.00, 1028.7,   88.0, -999.0
26-01-2022, 00:07:07,    258,    0.1,    0.4,   0.00,   0.00, 1028.6,   87.9, -999.0
26-01-2022, 00:07:17,    259,    0.5,    0.4,   0.00,   0.00, 1028.7,   88.1, -999.0
26-01-2022, 00:07:27,    253,    1.2,    0.5,   0.00,   0.00, 1028.7,   88.1, -999.0
26-01-2022, 00:07:37,    254,    0.3,    0.4,   0.00,   0.00, 1028.7,   88.0, -999.0
26-01-2022, 00:07:47,    254,    0.1,    0.5,   0.00,   0.00, 1028.7,   88.0, -999.0
26-01-2022, 00:07:57,    257,    0.0,    0.3,   0.00,   0.00, 1028.6,   87.8, -999.0
26-01-2022, 00:08:07,    258,    0.4,    0.4,   0.00,   0.00, 1028.6,   88.0, -999.0
26-01-2022, 00:08:17,    258,    0.0,    0.4,   0.00,   0.00, 1028.6,   87.8, -999.0
26-01-2022, 00:08:27,    258,    0.0,    0.3,   0.00,   0.00, 1028.5,   87.7, -999.0
26-01-2022, 00:08:37,    256,    0.0,    0.4,   0.00,   0.00, 1028.6,   87.9, -999.0
26-01-2022, 00:08:47,    281,    0.7,    0.4,   0.00,   0.00, 1028.6,   88.2, -999.0
26-01-2022, 00:08:57,    280,    0.9,    0.4,   0.00,   0.00, 1028.6,   88.1, -999.0
26-01-2022, 00:09:07,    280,    0.1,    0.4,   0.00,   0.00, 1028.6,   88.0, -999.0
26-01-2022, 00:09:17,    280,    0.0,    0.3,   0.00,   0.00, 1028.5,   87.7, -999.0
26-01-2022, 00:09:27,    280,    0.0,    0.4,   0.00,   0.00, 1028.5,   87.8, -999.0
26-01-2022, 00:09:36,    280,    0.0,    0.4,   0.00,   0.00, 1028.5,   87.9, -999.0
26-01-2022, 00:09:46,    280,    0.0,    0.3,   0.00,   0.00, 1028.5,   87.9, -999.0
26-01-2022, 00:09:57,    280,    0.0,    0.4,   0.00,   0.00, 1028.5,   87.9, -999.0
26-01-2022, 00:10:06,    278,    0.1,    0.4,   0.00,   0.00, 1028.6,   88.0, -999.0
26-01-2022, 00:10:16,    278,    0.1,    0.5,   0.00,   0.00, 1028.6,   88.2, -999.0
26-01-2022, 00:10:26,    278,    0.0,    0.4,   0.00,   0.00, 1028.6,   87.9, -999.0
26-01-2022, 00:10:36,    279,    0.0,    0.4,   0.00,   0.00, 1028.5,   87.8, -999.0
26-01-2022, 00:10:46,    278,    0.0,    0.4,   0.00,   0.00, 1028.5,   87.8, -999.0
26-01-2022, 00:10:56,    278,    0.0,    0.4,   0.00,   0.00, 1028.5,   87.8, -999.0
26-01-2022, 00:11:06,    278,    0.0,    0.4,   0.00,   0.00, 1028.5,   87.9, -999.0
26-01-2022, 00:11:16,    278,    0.0,    0.4,   0.00,   0.00, 1028.5,   87.8, -999.0
26-01-2022, 00:11:26,    278,    0.0,    0.4,   0.00,   0.00, 1028.5,   87.9, -999.0
26-01-2022, 00:11:36,    278,    0.0,    0.4,   0.00,   0.00, 1028.5,   87.9, -999.0
26-01-2022, 00:11:46,    278,    0.0,    0.4,   0.00,   0.00, 1028.5,   87.9, -999.0
26-01-2022, 00:11:56,    278,    0.0,    0.4,   0.00,   0.00, 1028.5,   87.9, -999.0
26-01-2022, 00:12:06,    278,    0.0,    0.4,   0.00,   0.00, 1028.5,   87.9, -999.0
26-01-2022, 00:12:16,    276,    0.1,    0.4,   0.00,   0.00, 1028.5,   88.0, -999.0
26-01-2022, 00:12:26,    276,    0.0,    0.4,   0.00,   0.00, 1028.5,   87.9, -999.0
26-01-2022, 00:12:36,    277,    0.0,    0.4,   0.00,   0.00, 1028.5,   87.8, -999.0
26-01-2022, 00:12:45,    276,    0.0,    0.4,   0.00,   0.00, 1028.5,   87.9, -999.0
26-01-2022, 00:12:55,    276,    0.1,    0.3,   0.00,   0.00, 1028.5,   88.1, -999.0
26-01-2022, 00:13:06,    276,    0.2,    0.4,   0.00,   0.00, 1028.5,   88.1, -999.0
26-01-2022, 00:13:15,    276,    0.0,    0.3,   0.00,   0.00, 1028.5,   87.9, -999.0
26-01-2022, 00:13:25,    276,    0.0,    0.4,   0.00,   0.00, 1028.5,   87.8, -999.0
26-01-2022, 00:13:36,    276,    0.0,    0.4,   0.00,   0.00, 1028.5,   88.0, -999.0
26-01-2022, 00:13:45,    280,    0.2,    0.5,   0.00,   0.00, 1028.6,   88.2, -999.0
26-01-2022, 00:13:55,    279,    0.0,    0.4,   0.00,   0.00, 1028.5,   87.9, -999.0
26-01-2022, 00:14:05,    279,    0.0,    0.4,   0.00,   0.00, 1028.5,   87.9, -999.0
26-01-2022, 00:14:15,    272,    0.0,    0.5,   0.00,   0.00, 1028.5,   88.0, -999.0
26-01-2022, 00:14:25,    272,    0.0,    0.4,   0.00,   0.00, 1028.5,   87.9, -999.0
26-01-2022, 00:14:35,    272,    0.0,    0.3,   0.00,   0.00, 1028.5,   87.9, -999.0
26-01-2022, 00:14:45,    275,    0.1,    0.4,   0.00,   0.00, 1028.6,   88.0, -999.0
26-01-2022, 00:14:55,    275,    0.1,    0.4,   0.00,   0.00, 1028.6,   87.8, -999.0
26-01-2022, 00:15:05,    275,    0.0,    0.4,   0.00,   0.00, 1028.5,   87.9, -999.0
26-01-2022, 00:15:15,    275,    0.4,    0.4,   0.00,   0.00, 1028.6,   88.2, -999.0
26-01-2022, 00:15:25,    275,    0.2,    0.5,   0.00,   0.00, 1028.7,   88.2, -999.0
26-01-2022, 00:15:35,    275,    0.3,    0.5,   0.00,   0.00, 1028.7,   88.2, -999.0
26-01-2022, 00:15:45,    277,    0.1,    0.4,   0.00,   0.00, 1028.6,   88.0, -999.0
26-01-2022, 00:15:55,    277,    0.2,    0.5,   0.00,   0.00, 1028.7,   88.2, -999.0
26-01-2022, 00:16:05,    277,    0.0,    0.4,   0.00,   0.00, 1028.6,   87.8, -999.0
26-01-2022, 00:16:15,    277,    0.0,    0.4,   0.00,   0.00, 1028.6,   87.9, -999.0
26-01-2022, 00:16:24,    277,    0.0,    0.4,   0.00,   0.00, 1028.6,   87.8, -999.0
26-01-2022, 00:16:34,    276,    0.0,    0.4,   0.00,   0.00, 1028.6,   87.9, -999.0
26-01-2022, 00:16:45,    276,    0.0,    0.3,   0.00,   0.00, 1028.6,   87.9, -999.0
26-01-2022, 00:16:54,    276,    0.0,    0.4,   0.00,   0.00, 1028.6,   87.9, -999.0
26-01-2022, 00:17:04,    276,    0.0,    0.3,   0.00,   0.00, 1028.6,   88.0, -999.0
26-01-2022, 00:17:14,    276,    0.0,    0.4,   0.00,   0.00, 1028.6,   88.0, -999.0
26-01-2022, 00:17:24,    276,    0.0,    0.4,   0.00,   0.00, 1028.5,   88.1, -999.0
26-01-2022, 00:17:34,    276,    0.0,    0.5,   0.00,   0.00, 1028.5,   88.1, -999.0
26-01-2022, 00:17:44,    276,    0.0,    0.5,   0.00,   0.00, 1028.6,   88.2, -999.0
26-01-2022, 00:17:54,    276,    0.0,    0.5,   0.00,   0.00, 1028.5,   88.2, -999.0
26-01-2022, 00:18:04,    276,    0.0,    0.4,   0.00,   0.00, 1028.6,   88.2, -999.0
26-01-2022, 00:18:14,    276,    0.0,    0.5,   0.00,   0.00, 1028.6,   88.3, -999.0
26-01-2022, 00:18:24,    276,    0.0,    0.5,   0.00,   0.00, 1028.5,   88.1, -999.0
26-01-2022, 00:18:34,    276,    0.0,    0.4,   0.00,   0.00, 1028.5,   88.1, -999.0
26-01-2022, 00:18:44,    276,    0.0,    0.4,   0.00,   0.00, 1028.5,   88.1, -999.0
26-01-2022, 00:18:54,    276,    0.0,    0.4,   0.00,   0.00, 1028.5,   88.1, -999.0
26-01-2022, 00:19:04,    276,    0.0,    0.4,   0.00,   0.00, 1028.6,   88.1, -999.0
26-01-2022, 00:19:14,    276,    0.0,    0.4,   0.00,   0.00, 1028.6,   87.9, -999.0
26-01-2022, 00:19:24,    266,    0.1,    0.4,   0.00,   0.00, 1028.6,   88.2, -999.0
26-01-2022, 00:19:33,    265,    0.8,    0.5,   0.00,   0.00, 1028.7,   88.6, -999.0
26-01-2022, 00:19:43,    265,    0.3,    0.5,   0.00,   0.00, 1028.6,   88.4, -999.0
26-01-2022, 00:19:54,    265,    0.0,    0.4,   0.00,   0.00, 1028.6,   88.1, -999.0
26-01-2022, 00:20:03,    268,    0.5,    0.5,   0.00,   0.00, 1028.7,   88.3, -999.0
26-01-2022, 00:20:13,    267,    0.0,    0.4,   0.00,   0.00, 1028.6,   88.1, -999.0
26-01-2022, 00:20:23,    267,    0.3,    0.4,   0.00,   0.00, 1028.6,   88.0, -999.0
26-01-2022, 00:20:33,    266,    0.5,    0.5,   0.00,   0.00, 1028.7,   88.2, -999.0
26-01-2022, 00:20:43,    266,    0.0,    0.4,   0.00,   0.00, 1028.6,   88.1, -999.0
26-01-2022, 00:20:53,    266,    0.2,    0.5,   0.00,   0.00, 1028.6,   88.3, -999.0
26-01-2022, 00:21:03,    266,    0.7,    0.5,   0.00,   0.00, 1028.7,   88.5, -999.0
26-01-2022, 00:21:13,    264,    0.6,    0.6,   0.00,   0.00, 1028.7,   88.3, -999.0
26-01-2022, 00:21:23,    264,    0.0,    0.4,   0.00,   0.00, 1028.5,   88.1, -999.0
26-01-2022, 00:21:33,    263,    0.2,    0.4,   0.00,   0.00, 1028.7,   88.3, -999.0
26-01-2022, 00:21:43,    263,    0.7,    0.5,   0.00,   0.00, 1028.7,   88.3, -999.0
26-01-2022, 00:21:53,    263,    0.2,    0.4,   0.00,   0.00, 1028.6,   88.2, -999.0
26-01-2022, 00:22:03,    267,    0.4,    0.5,   0.00,   0.00, 1028.7,   88.3, -999.0
26-01-2022, 00:22:13,    264,    0.6,    0.5,   0.00,   0.00, 1028.7,   88.3, -999.0
26-01-2022, 00:22:23,    252,    0.3,    0.5,   0.00,   0.00, 1028.6,   88.2, -999.0
26-01-2022, 00:22:33,    254,    0.1,    0.4,   0.00,   0.00, 1028.6,   88.0, -999.0
26-01-2022, 00:22:42,    255,    0.2,    0.4,   0.00,   0.00, 1028.6,   88.1, -999.0
26-01-2022, 00:22:53,    256,    0.4,    0.5,   0.00,   0.00, 1028.7,   88.2, -999.0
26-01-2022, 00:23:03,    258,    0.6,    0.4,   0.00,   0.00, 1028.6,   88.4, -999.0
26-01-2022, 00:23:12,    258,    0.0,    0.3,   0.00,   0.00, 1028.5,   88.0, -999.0
26-01-2022, 00:23:22,    258,    0.0,    0.4,   0.00,   0.00, 1028.5,   87.9, -999.0
26-01-2022, 00:23:33,    259,    0.0,    0.4,   0.00,   0.00, 1028.5,   87.9, -999.0
26-01-2022, 00:23:42,    258,    0.2,    0.4,   0.00,   0.00, 1028.6,   88.2, -999.0
26-01-2022, 00:23:52,    258,    0.0,    0.3,   0.00,   0.00, 1028.6,   88.1, -999.0
26-01-2022, 00:24:02,    259,    0.0,    0.3,   0.00,   0.00, 1028.5,   88.0, -999.0
26-01-2022, 00:24:12,    259,    0.0,    0.4,   0.00,   0.00, 1028.6,   88.1, -999.0
26-01-2022, 00:24:22,    265,    0.0,    0.3,   0.00,   0.00, 1028.5,   87.9, -999.0
26-01-2022, 00:24:32,    264,    0.0,    0.4,   0.00,   0.00, 1028.5,   88.0, -999.0
26-01-2022, 00:24:42,    264,    0.3,    0.4,   0.00,   0.00, 1028.6,   88.4, -999.0
26-01-2022, 00:24:52,    258,    1.1,    0.5,   0.00,   0.00, 1028.6,   88.4, -999.0
26-01-2022, 00:25:02,    262,    0.3,    0.5,   0.00,   0.00, 1028.5,   88.3, -999.0
26-01-2022, 00:25:12,    253,    0.9,    0.4,   0.00,   0.00, 1028.6,   88.3, -999.0
26-01-2022, 00:25:22,    253,    0.1,    0.4,   0.00,   0.00, 1028.5,   88.1, -999.0
26-01-2022, 00:25:32,    255,    0.0,    0.3,   0.00,   0.00, 1028.4,   88.0, -999.0
26-01-2022, 00:25:42,    255,    0.0,    0.4,   0.00,   0.00, 1028.4,   87.8, -999.0
26-01-2022, 00:25:52,    255,    0.0,    0.2,   0.00,   0.00, 1028.4,   88.0, -999.0
26-01-2022, 00:26:02,    254,    0.0,    0.4,   0.00,   0.00, 1028.4,   88.1, -999.0
26-01-2022, 00:26:12,    256,    0.0,    0.4,   0.00,   0.00, 1028.4,   88.1, -999.0
26-01-2022, 00:26:21,    256,    0.0,    0.5,   0.00,   0.00, 1028.4,   88.2, -999.0
26-01-2022, 00:26:31,    256,    0.0,    0.5,   0.00,   0.00, 1028.4,   88.3, -999.0
26-01-2022, 00:26:42,    256,    0.0,    0.4,   0.00,   0.00, 1028.5,   88.3, -999.0
26-01-2022, 00:26:51,    256,    0.0,    0.4,   0.00,   0.00, 1028.4,   88.2, -999.0
26-01-2022, 00:27:01,    256,    0.0,    0.5,   0.00,   0.00, 1028.4,   88.3, -999.0
26-01-2022, 00:27:11,    256,    0.0,    0.5,   0.00,   0.00, 1028.4,   88.4, -999.0
26-01-2022, 00:27:21,    256,    0.6,    0.5,   0.00,   0.00, 1028.5,   88.6, -999.0
26-01-2022, 00:27:31,    261,    1.1,    0.5,   0.00,   0.00, 1028.6,   88.6, -999.0
26-01-2022, 00:27:41,    261,    0.9,    0.6,   0.00,   0.00, 1028.6,   88.4, -999.0
26-01-2022, 00:27:51,    261,    0.2,    0.4,   0.00,   0.00, 1028.5,   88.3, -999.0
26-01-2022, 00:28:01,    261,    0.2,    0.5,   0.00,   0.00, 1028.5,   88.3, -999.0
26-01-2022, 00:28:11,    260,    0.0,    0.4,   0.00,   0.00, 1028.4,   88.0, -999.0
26-01-2022, 00:28:21,    261,    0.0,    0.4,   0.00,   0.00, 1028.4,   88.0, -999.0
26-01-2022, 00:28:31,    261,    0.0,    0.4,   0.00,   0.00, 1028.4,   88.0, -999.0
26-01-2022, 00:28:41,    261,    0.0,    0.4,   0.00,   0.00, 1028.4,   88.2, -999.0
26-01-2022, 00:28:51,    261,    0.0,    0.4,   0.00,   0.00, 1028.5,   88.2, -999.0
26-01-2022, 00:29:01,    264,    0.0,    0.4,   0.00,   0.00, 1028.4,   88.1, -999.0
26-01-2022, 00:29:11,    261,    0.1,    0.5,   0.00,   0.00, 1028.5,   88.4, -999.0
26-01-2022, 00:29:21,    235,    0.1,    0.5,   0.00,   0.00, 1028.5,   88.5, -999.0
26-01-2022, 00:29:30,    236,    0.0,    0.4,   0.00,   0.00, 1028.5,   88.0, -999.0
26-01-2022, 00:29:41,    236,    0.0,    0.4,   0.00,   0.00, 1028.4,   88.0, -999.0
26-01-2022, 00:29:51,    236,    0.0,    0.4,   0.00,   0.00, 1028.4,   88.2, -999.0
26-01-2022, 00:30:00,    236,    0.0,    0.4,   0.00,   0.00, 1028.4,   88.1, -999.0
26-01-2022, 00:30:10,    241,    0.0,    0.5,   0.00,   0.00, 1028.4,   88.3, -999.0
26-01-2022, 00:30:21,    243,    0.0,    0.5,   0.00,   0.00, 1028.4,   88.2, -999.0
26-01-2022, 00:30:30,    243,    0.0,    0.4,   0.00,   0.00, 1028.5,   88.1, -999.0
26-01-2022, 00:30:40,    244,    0.0,    0.4,   0.00,   0.00, 1028.4,   88.0, -999.0
26-01-2022, 00:30:50,    255,    0.0,    0.4,   0.00,   0.00, 1028.4,   88.1, -999.0
26-01-2022, 00:31:00,    258,    0.0,    0.4,   0.00,   0.00, 1028.4,   88.1, -999.0
26-01-2022, 00:31:10,    258,    0.0,    0.4,   0.00,   0.00, 1028.5,   88.1, -999.0
26-01-2022, 00:31:20,    258,    0.0,    0.3,   0.00,   0.00, 1028.5,   88.1, -999.0
26-01-2022, 00:31:30,    259,    0.0,    0.4,   0.00,   0.00, 1028.5,   88.2, -999.0
26-01-2022, 00:31:40,    258,    0.0,    0.4,   0.00,   0.00, 1028.4,   88.3, -999.0
26-01-2022, 00:31:50,    263,    0.0,    0.3,   0.00,   0.00, 1028.4,   88.2, -999.0
26-01-2022, 00:32:00,    263,    0.0,    0.4,   0.00,   0.00, 1028.5,   88.2, -999.0
26-01-2022, 00:32:10,    263,    0.0,    0.4,   0.00,   0.00, 1028.4,   88.2, -999.0
26-01-2022, 00:32:20,    255,    0.3,    0.5,   0.00,   0.00, 1028.5,   88.5, -999.0
26-01-2022, 00:32:30,    259,    0.1,    0.5,   0.00,   0.00, 1028.5,   88.5, -999.0
26-01-2022, 00:32:40,    259,    0.0,    0.4,   0.00,   0.00, 1028.5,   88.1, -999.0
26-01-2022, 00:32:50,    243,    0.0,    0.4,   0.00,   0.00, 1028.4,   88.0, -999.0
26-01-2022, 00:33:00,    243,    0.0,    0.4,   0.00,   0.00, 1028.5,   88.1, -999.0
26-01-2022, 00:33:09,    242,    0.0,    0.4,   0.00,   0.00, 1028.5,   88.0, -999.0
26-01-2022, 00:33:19,    243,    0.0,    0.4,   0.00,   0.00, 1028.4,   88.1, -999.0
26-01-2022, 00:33:30,    244,    0.0,    0.4,   0.00,   0.00, 1028.5,   88.2, -999.0
26-01-2022, 00:33:39,    247,    0.0,    0.5,   0.00,   0.00, 1028.4,   88.1, -999.0
26-01-2022, 00:33:49,    248,    0.0,    0.4,   0.00,   0.00, 1028.4,   88.1, -999.0
26-01-2022, 00:33:59,    249,    0.0,    0.5,   0.00,   0.00, 1028.4,   88.1, -999.0
26-01-2022, 00:34:09,    251,    0.0,    0.4,   0.00,   0.00, 1028.4,   88.2, -999.0
26-01-2022, 00:34:19,    253,    0.0,    0.4,   0.00,   0.00, 1028.4,   88.2, -999.0
26-01-2022, 00:34:29,    260,    0.0,    0.4,   0.00,   0.00, 1028.4,   88.1, -999.0
26-01-2022, 00:34:39,    263,    0.0,    0.3,   0.00,   0.00, 1028.5,   88.2, -999.0
26-01-2022, 00:34:49,    263,    0.0,    0.4,   0.00,   0.00, 1028.5,   88.2, -999.0
26-01-2022, 00:34:59,    261,    0.0,    0.5,   0.00,   0.00, 1028.4,   88.2, -999.0
26-01-2022, 00:35:09,    261,    0.1,    0.5,   0.00,   0.00, 1028.5,   88.4, -999.0
26-01-2022, 00:35:19,    261,    0.1,    0.5,   0.00,   0.00, 1028.5,   88.3, -999.0
26-01-2022, 00:35:29,    261,    0.1,    0.5,   0.00,   0.00, 1028.5,   88.3, -999.0
26-01-2022, 00:35:39,    261,    0.0,    0.4,   0.00,   0.00, 1028.4,   88.0, -999.0
26-01-2022, 00:35:49,    254,    0.4,    0.4,   0.00,   0.00, 1028.5,   88.4, -999.0
26-01-2022, 00:35:59,    239,    0.1,    0.3,   0.00,   0.00, 1028.5,   88.3, -999.0
26-01-2022, 00:36:09,    286,    1.2,    0.5,   0.00,   0.00, 1028.5,   88.6, -999.0
26-01-2022, 00:36:18,    265,    0.3,    0.4,   0.00,   0.00, 1028.5,   88.4, -999.0
26-01-2022, 00:36:29,    248,    1.1,    0.5,   0.00,   0.00, 1028.5,   88.6, -999.0
26-01-2022, 00:36:39,    239,    0.8,    0.5,   0.00,   0.00, 1028.5,   88.5, -999.0
26-01-2022, 00:36:48,    255,    0.8,    0.5,   0.00,   0.00, 1028.5,   88.5, -999.0
26-01-2022, 00:36:58,    270,    0.5,    0.5,   0.00,   0.00, 1028.5,   88.4, -999.0
26-01-2022, 00:37:09,    274,    0.0,    0.4,   0.00,   0.00, 1028.4,   88.1, -999.0
26-01-2022, 00:37:18,    274,    0.0,    0.4,   0.00,   0.00, 1028.3,   88.0, -999.0
26-01-2022, 00:37:28,    273,    0.3,    0.4,   0.00,   0.00, 1028.5,   88.3, -999.0
26-01-2022, 00:37:38,    271,    0.1,    0.4,   0.00,   0.00, 1028.4,   88.2, -999.0
26-01-2022, 00:37:48,    239,    0.8,    0.5,   0.00,   0.00, 1028.5,   88.5, -999.0
26-01-2022, 00:37:58,    240,    0.4,    0.4,   0.00,   0.00, 1028.5,   88.4, -999.0
26-01-2022, 00:38:08,    239,    0.0,    0.4,   0.00,   0.00, 1028.4,   88.0, -999.0
26-01-2022, 00:38:18,    239,    0.0,    0.3,   0.00,   0.00, 1028.4,   88.1, -999.0
26-01-2022, 00:38:28,    243,    0.0,    0.4,   0.00,   0.00, 1028.3,   88.2, -999.0
26-01-2022, 00:38:38,    255,    0.0,    0.4,   0.00,   0.00, 1028.4,   88.3, -999.0
26-01-2022, 00:38:48,    257,    0.0,    0.4,   0.00,   0.00, 1028.4,   88.2, -999.0
26-01-2022, 00:38:58,    258,    0.0,    0.4,   0.00,   0.00, 1028.4,   88.3, -999.0
26-01-2022, 00:39:08,    258,    0.0,    0.5,   0.00,   0.00, 1028.3,   88.2, -999.0
26-01-2022, 00:39:18,    259,    0.0,    0.4,   0.00,   0.00, 1028.3,   88.2, -999.0
26-01-2022, 00:39:27,    257,    0.2,    0.4,   0.00,   0.00, 1028.4,   88.3, -999.0
26-01-2022, 00:39:38,    262,    0.0,    0.4,   0.00,   0.00, 1028.4,   88.4, -999.0
26-01-2022, 00:39:48,    263,    0.0,    0.4,   0.00,   0.00, 1028.3,   88.2, -999.0
26-01-2022, 00:39:57,    263,    0.0,    0.4,   0.00,   0.00, 1028.3,   88.2, -999.0
26-01-2022, 00:40:07,    263,    0.0,    0.3,   0.00,   0.00, 1028.4,   88.2, -999.0
26-01-2022, 00:40:18,    263,    0.0,    0.4,   0.00,   0.00, 1028.4,   88.2, -999.0
26-01-2022, 00:40:27,    263,    0.0,    0.4,   0.00,   0.00, 1028.4,   88.2, -999.0
26-01-2022, 00:40:37,    263,    0.0,    0.4,   0.00,   0.00, 1028.4,   88.2, -999.0
26-01-2022, 00:40:48,    264,    0.0,    0.4,   0.00,   0.00, 1028.4,   88.3, -999.0
26-01-2022, 00:40:57,    264,    0.0,    0.4,   0.00,   0.00, 1028.4,   88.3, -999.0
26-01-2022, 00:41:07,    264,    0.0,    0.5,   0.00,   0.00, 1028.4,   88.3, -999.0
26-01-2022, 00:41:17,    264,    0.0,    0.4,   0.00,   0.00, 1028.4,   88.3, -999.0
26-01-2022, 00:41:27,    266,    0.0,    0.4,   0.00,   0.00, 1028.4,   88.2, -999.0
26-01-2022, 00:41:37,    244,    0.1,    0.5,   0.00,   0.00, 1028.4,   88.4, -999.0
26-01-2022, 00:41:47,    247,    0.2,    0.4,   0.00,   0.00, 1028.4,   88.5, -999.0
26-01-2022, 00:41:57,    246,    0.0,    0.4,   0.00,   0.00, 1028.4,   88.2, -999.0
26-01-2022, 00:42:07,    247,    0.0,    0.4,   0.00,   0.00, 1028.4,   88.2, -999.0
26-01-2022, 00:42:17,    247,    0.0,    0.5,   0.00,   0.00, 1028.4,   88.2, -999.0
26-01-2022, 00:42:27,    252,    0.0,    0.5,   0.00,   0.00, 1028.4,   88.3, -999.0
26-01-2022, 00:42:37,    253,    0.0,    0.3,   0.00,   0.00, 1028.4,   88.3, -999.0
26-01-2022, 00:42:47,    255,    0.7,    0.5,   0.00,   0.00, 1028.5,   88.6, -999.0
26-01-2022, 00:42:57,    267,    0.9,    0.6,   0.00,   0.00, 1028.5,   88.7, -999.0
26-01-2022, 00:43:06,    235,    0.8,    0.6,   0.00,   0.00, 1028.5,   88.6, -999.0
26-01-2022, 00:43:17,    243,    0.6,    0.5,   0.00,   0.00, 1028.5,   88.6, -999.0
26-01-2022, 00:43:27,    252,    0.1,    0.4,   0.00,   0.00, 1028.5,   88.4, -999.0
26-01-2022, 00:43:36,    257,    0.0,    0.5,   0.00,   0.00, 1028.4,   88.3, -999.0
26-01-2022, 00:43:46,    257,    0.0,    0.4,   0.00,   0.00, 1028.4,   88.2, -999.0
26-01-2022, 00:43:57,    256,    0.0,    0.4,   0.00,   0.00, 1028.4,   88.2, -999.0
26-01-2022, 00:44:06,    258,    0.0,    0.4,   0.00,   0.00, 1028.4,   88.3, -999.0
26-01-2022, 00:44:16,    258,    0.1,    0.5,   0.00,   0.00, 1028.4,   88.6, -999.0
26-01-2022, 00:44:26,    258,    0.2,    0.6,   0.00,   0.00, 1028.5,   88.6, -999.0
26-01-2022, 00:44:36,    258,    0.2,    0.5,   0.00,   0.00, 1028.5,   88.6, -999.0
26-01-2022, 00:44:46,    258,    0.0,    0.4,   0.00,   0.00, 1028.4,   88.3, -999.0
26-01-2022, 00:44:56,    257,    0.5,    0.5,   0.00,   0.00, 1028.5,   88.5, -999.0
26-01-2022, 00:45:06,    257,    0.4,    0.4,   0.00,   0.00, 1028.5,   88.5, -999.0
26-01-2022, 00:45:16,    256,    0.1,    0.4,   0.00,   0.00, 1028.4,   88.3, -999.0
26-01-2022, 00:45:26,    256,    0.1,    0.4,   0.00,   0.00, 1028.4,   88.2, -999.0
26-01-2022, 00:45:36,    260,    0.0,    0.4,   0.00,   0.00, 1028.3,   88.3, -999.0
26-01-2022, 00:45:46,    260,    0.0,    0.4,   0.00,   0.00, 1028.4,   88.4, -999.0
26-01-2022, 00:45:56,    258,    0.0,    0.5,   0.00,   0.00, 1028.4,   88.3, -999.0
26-01-2022, 00:46:06,    259,    0.0,    0.4,   0.00,   0.00, 1028.4,   88.4, -999.0
26-01-2022, 00:46:15,    259,    0.0,    0.5,   0.00,   0.00, 1028.4,   88.4, -999.0
26-01-2022, 00:46:26,    260,    0.0,    0.4,   0.00,   0.00, 1028.4,   88.3, -999.0
26-01-2022, 00:46:36,    260,    0.0,    0.5,   0.00,   0.00, 1028.4,   88.3, -999.0
26-01-2022, 00:46:45,    260,    0.0,    0.4,   0.00,   0.00, 1028.3,   88.3, -999.0